Hourly Weather Lugovoe

Today, 13 May, Thursday

Time Temperature Precipitation Wind Pressure Humidity
00:00 +18°C° 0 mm 4 mps 762 mmHg 51%
01:00 +17°C° 0 mm 4 mps 762 mmHg 52%
02:00 +17°C° 0 mm 4 mps 762 mmHg 52%
03:00 +15°C° 0 mm 4 mps 762 mmHg 53%
04:00 +15°C° 0 mm 4 mps 762 mmHg 53%
05:00 +17°C° 0 mm 4 mps 762 mmHg 53%
06:00 +18°C° 0 mm 4 mps 763 mmHg 52%
07:00 +19°C° 0 mm 4 mps 763 mmHg 51%
08:00 +21°C° 0 mm 5 mps 763 mmHg 45%
09:00 +23°C° 0 mm 5 mps 763 mmHg 38%
10:00 +26°C° 0 mm 5 mps 763 mmHg 32%
11:00 +27°C° 0 mm 6 mps 763 mmHg 29%
12:00 +28°C° 0 mm 6 mps 763 mmHg 27%
13:00 +29°C° 0 mm 6 mps 763 mmHg 25%
14:00 +29°C° 0 mm 6 mps 762 mmHg 25%
15:00 +29°C° 0 mm 6 mps 762 mmHg 25%
16:00 +29°C° 0 mm 6 mps 762 mmHg 26%
17:00 +28°C° 0 mm 5 mps 762 mmHg 31%
18:00 +27°C° 0 mm 4 mps 762 mmHg 37%
19:00 +26°C° 0 mm 3 mps 762 mmHg 43%
20:00 +24°C° 0 mm 3 mps 762 mmHg 43%
21:00 +22°C° 0 mm 3 mps 762 mmHg 43%
22:00 +20°C° 0 mm 4 mps 762 mmHg 43%
23:00 +20°C° 0 mm 4 mps 762 mmHg 44%

Tomorrow, 14 May, Friday

Time Temperature Precipitation Wind Pressure Humidity
00:00 +19°C° 0 mm 4 mps 762 mmHg 44%
01:00 +19°C° 0 mm 4 mps 762 mmHg 45%
02:00 +18°C° 0 mm 3 mps 762 mmHg 46%
03:00 +18°C° 0 mm 3 mps 763 mmHg 46%
04:00 +18°C° 0 mm 3 mps 763 mmHg 47%
05:00 +18°C° 0 mm 3 mps 763 mmHg 48%
06:00 +19°C° 0 mm 3 mps 763 mmHg 49%
07:00 +20°C° 0 mm 3 mps 763 mmHg 50%
08:00 +22°C° 0 mm 3 mps 763 mmHg 44%
09:00 +25°C° 0 mm 3 mps 763 mmHg 37%
10:00 +28°C° 0 mm 3 mps 763 mmHg 31%
11:00 +29°C° 0 mm 3 mps 763 mmHg 28%
12:00 +30°C° 0 mm 3 mps 763 mmHg 25%
13:00 +31°C° 0 mm 3 mps 763 mmHg 22%
14:00 +31°C° 0 mm 3 mps 763 mmHg 21%
15:00 +31°C° 0 mm 3 mps 763 mmHg 21%
16:00 +31°C° 0 mm 3 mps 763 mmHg 21%
17:00 +30°C° 0 mm 2 mps 762 mmHg 26%
18:00 +29°C° 0 mm 2 mps 762 mmHg 30%
19:00 +28°C° 0 mm 1 mps 762 mmHg 35%
20:00 +26°C° 0 mm 2 mps 762 mmHg 35%
21:00 +25°C° 0 mm 2 mps 762 mmHg 35%
22:00 +23°C° 0 mm 2 mps 762 mmHg 36%
23:00 +23°C° 0 mm 2 mps 762 mmHg 37%

Day after tomorrow, 15 May, Saturday

Time Temperature Precipitation Wind Pressure Humidity
00:00 +21°C° 0 mm 2 mps 762 mmHg 38%
01:00 +20°C° 0 mm 2 mps 762 mmHg 39%
02:00 +20°C° 0 mm 2 mps 762 mmHg 39%
03:00 +20°C° 0 mm 2 mps 762 mmHg 39%
04:00 +19°C° 0 mm 2 mps 762 mmHg 39%
05:00 +20°C° 0 mm 2 mps 762 mmHg 41%
06:00 +21°C° 0 mm 2 mps 762 mmHg 42%
07:00 +23°C° 0 mm 2 mps 762 mmHg 43%
08:00 +25°C° 0 mm 3 mps 762 mmHg 39%
09:00 +27°C° 0 mm 3 mps 762 mmHg 35%
10:00 +29°C° 0 mm 3 mps 762 mmHg 31%
11:00 +30°C° 0 mm 3 mps 762 mmHg 29%
12:00 +31°C° 0 mm 3 mps 762 mmHg 27%
13:00 +33°C° 0 mm 3 mps 761 mmHg 24%
14:00 +32°C° 0 mm 2 mps 761 mmHg 24%
15:00 +32°C° 0 mm 2 mps 761 mmHg 24%
16:00 +32°C° 0 mm 2 mps 761 mmHg 23%
17:00 +31°C° 0 mm 2 mps 760 mmHg 28%
18:00 +30°C° 0 mm 1 mps 760 mmHg 32%
19:00 +29°C° 0 mm 1 mps 760 mmHg 37%
20:00 +28°C° 0 mm 1 mps 760 mmHg 37%
21:00 +26°C° 0 mm 2 mps 760 mmHg 37%
22:00 +25°C° 0 mm 2 mps 760 mmHg 36%
23:00 +24°C° 0 mm 2 mps 760 mmHg 37%

16 May, Sunday

Time Temperature Precipitation Wind Pressure Humidity
00:00 +24°C° 0 mm 2 mps 760 mmHg 38%
01:00 +24°C° 0 mm 2 mps 759 mmHg 38%
02:00 +22°C° 0 mm 3 mps 760 mmHg 40%
03:00 +21°C° 0 mm 3 mps 760 mmHg 42%
04:00 +21°C° 0 mm 3 mps 760 mmHg 44%
05:00 +21°C° 0 mm 3 mps 760 mmHg 45%
06:00 +22°C° 0 mm 3 mps 760 mmHg 46%
07:00 +24°C° 0 mm 3 mps 760 mmHg 47%
08:00 +26°C° 0 mm 3 mps 760 mmHg 43%
09:00 +27°C° 0 mm 3 mps 760 mmHg 39%
10:00 +29°C° 0 mm 4 mps 760 mmHg 35%
11:00 +32°C° 0 mm 4 mps 759 mmHg 31%
12:00 +33°C° 0 mm 4 mps 759 mmHg 27%
13:00 +34°C° 0 mm 4 mps 759 mmHg 22%
14:00 +34°C° 0 mm 4 mps 759 mmHg 23%
15:00 +34°C° 0 mm 3 mps 758 mmHg 24%
16:00 +33°C° 0 mm 3 mps 758 mmHg 25%
17:00 +31°C° 0 mm 3 mps 758 mmHg 29%
18:00 +30°C° 0 mm 2 mps 758 mmHg 33%
19:00 +29°C° 0 mm 2 mps 757 mmHg 36%
20:00 +28°C° 0 mm 2 mps 758 mmHg 37%
21:00 +26°C° 0 mm 2 mps 758 mmHg 38%
22:00 +25°C° 0 mm 3 mps 758 mmHg 39%
23:00 +25°C° 0 mm 2 mps 758 mmHg 39%

17 May, Monday

Time Temperature Precipitation Wind Pressure Humidity
00:00 +24°C° 0 mm 2 mps 758 mmHg 39%
01:00 +23°C° 0 mm 2 mps 758 mmHg 39%
02:00 +23°C° 0 mm 2 mps 758 mmHg 40%
03:00 +21°C° 0 mm 2 mps 758 mmHg 42%
04:00 +20°C° 0 mm 2 mps 758 mmHg 43%
05:00 +21°C° 0 mm 2 mps 758 mmHg 43%
06:00 +24°C° 0 mm 2 mps 758 mmHg 43%
07:00 +25°C° 0 mm 2 mps 758 mmHg 43%
08:00 +27°C° 0 mm 2 mps 758 mmHg 38%
09:00 +29°C° 0 mm 2 mps 758 mmHg 33%
10:00 +30°C° 0 mm 2 mps 758 mmHg 28%
11:00 +31°C° 0 mm 2 mps 758 mmHg 25%
12:00 +32°C° 0 mm 2 mps 758 mmHg 21%
13:00 +34°C° 0 mm 2 mps 757 mmHg 18%
14:00 +33°C° 0 mm 1 mps 757 mmHg 18%
15:00 +33°C° 0 mm 1 mps 757 mmHg 18%
16:00 +33°C° 0 mm 1 mps 757 mmHg 17%
17:00 +32°C° 0 mm 1 mps 756 mmHg 22%
18:00 +31°C° 0 mm 1 mps 756 mmHg 26%
19:00 +30°C° 0 mm 2 mps 756 mmHg 31%
20:00 +28°C° 0 mm 2 mps 756 mmHg 30%
21:00 +26°C° 0 mm 2 mps 756 mmHg 30%
22:00 +25°C° 0 mm 2 mps 756 mmHg 30%
23:00 +24°C° 0 mm 2 mps 756 mmHg 31%

18 May, Tuesday

Time Temperature Precipitation Wind Pressure Humidity
00:00 +24°C° 0 mm 2 mps 756 mmHg 31%
01:00 +23°C° 0 mm 2 mps 756 mmHg 32%
02:00 +21°C° 0 mm 2 mps 757 mmHg 34%
03:00 +22°C° 0 mm 1 mps 757 mmHg 36%
04:00 +21°C° 0 mm 1 mps 757 mmHg 38%
05:00 +23°C° 0 mm 1 mps 757 mmHg 39%
06:00 +24°C° 0 mm 1 mps 757 mmHg 40%
07:00 +25°C° 0 mm 1 mps 757 mmHg 41%
08:00 +27°C° 0 mm 1 mps 757 mmHg 37%
09:00 +29°C° 0 mm 1 mps 757 mmHg 33%
10:00 +31°C° 0 mm 1 mps 757 mmHg 29%
11:00 +32°C° 0 mm 1 mps 757 mmHg 25%
12:00 +33°C° 0 mm 1 mps 757 mmHg 22%
13:00 +34°C° 0 mm 1 mps 757 mmHg 19%
14:00 +34°C° 0 mm 1 mps 756 mmHg 19%
15:00 +34°C° 0 mm 1 mps 756 mmHg 19%
16:00 +34°C° 0 mm 1 mps 756 mmHg 19%
17:00 +33°C° 0 mm 1 mps 756 mmHg 23%
18:00 +32°C° 0 mm 1 mps 756 mmHg 27%
19:00 +30°C° 0 mm 2 mps 756 mmHg 31%
20:00 +29°C° 0 mm 2 mps 756 mmHg 33%
21:00 +27°C° 0 mm 3 mps 757 mmHg 36%
22:00 +26°C° 0 mm 4 mps 757 mmHg 38%
23:00 +25°C° 0 mm 3 mps 757 mmHg 45%
Show more

We Need Your Consent

Meteoprog and our Service Providers may store and access personal data such as cookies, device identifiers or other similar technologies on your device and process such data to personalise content and ads, as well as provide social media features and to analyse the traffic.

  • Store and/or access information on your device

    Cookies, device identifiers or other information can be stored or accessed on your device for the purposes indicated above.

  • Personalised ads and content, ad and content measurement, audience insights, and products development

    Ads and content can be personalised based on a profile. More data can be added to better personalise ads and content. Ad and content performance can be measured. Insights about the audience who saw the ads and content can be derived. Such data can be used to develop or improve user’s experience, systems and software.

By clicking ‘I Agree’ you will allow the use of indicated cookies, device identifiers, web beacons or other similar technologies. Your settings can be changed in the browser on your device.

For certain purposes, legitimate interests may be relied on, rather than consent. You can read more about this in our Privacy and Cookie Policy.